Home   Weather   Oberursel (Taunus)   Past weeks

Flag for Germany Past Weather in Oberursel (Taunus), Hesse, Germany — Yesterday and Last 2 Weeks

Now
54 °F

Passing clouds.


Feels Like: 51 °F
Forecast: 35 / 62 °F
Wind: 8 mph from West

Location: Frankfurt-M-Flughafen Airport

Current Time: Apr 29, 2017 at 1:39:16 pm

Latest Report: Apr 29, 2017 at 1:20 pm


Visibility: N/A

Pressure: 30.04 "Hg

Humidity: 41%

Dew Point: 30 °F

Location of Oberursel (Taunus)Location

Past Weather in Oberursel (Taunus) — Graph

°F

Oberursel (Taunus) Temperature Yesterday

Maximum temperature yesterday: 55 °F (at 1:20 pm)
Minimum temperature yesterday: 32 °F (at 6:20 am)
Average temperature yesterday: 47 °F

High & Low Weather Summary for the Past Weeks

 TemperatureHumidityPressure
High63 °F (Apr 24, 5:20 pm)100% (Apr 17, 10:20 am)30.60 "Hg (Apr 17, 10:20 am)
Low27 °F (Apr 20, 4:20 am)24% (Apr 26, 4:20 pm)29.68 "Hg (Apr 25, 3:50 am)
Average46 °F60%30.12 "Hg
* Reported Apr 14 12:20 pm — Apr 29 12:20 pm, Oberursel (Taunus), Weather by CustomWeather, © 2017

Note: Actual official high and low records may vary slightly from our data, if they occured in-between our weather recording intervals... More about our weather records

Advertising

Oberursel (Taunus) Weather History for the Previous 24 Hours

Scroll right to see more
 ConditionsComfort  
Time TempWeatherWind HumidityBarometerVisibility
12:20 pm
Sat, Apr 29
52 °FScattered clouds.8 mph44%30.07 "HgN/A
11:50 am52 °FScattered clouds.10 mph47%30.07 "HgN/A
11:20 am52 °FScattered clouds.8 mph47%30.07 "HgN/A
10:50 am52 °FPassing clouds.2 mph50%30.07 "HgN/A
9:50 am52 °FPassing clouds.7 mph58%30.07 "HgN/A
9:20 am48 °FScattered clouds.7 mph62%30.07 "HgN/A
8:50 am48 °FPassing clouds.7 mph66%30.07 "HgN/A
8:20 am45 °FPassing clouds.5 mph76%30.07 "HgN/A
7:50 am43 °FSunny.7 mph81%30.07 "Hg10 mi
7:20 am43 °FSunny.6 mph81%30.07 "Hg10 mi
6:50 am43 °FSunny.5 mph81%30.04 "Hg10 mi
6:20 am41 °FPassing clouds.3 mph87%30.04 "HgN/A
5:50 am41 °FClear.3 mph87%30.04 "Hg10 mi
5:20 am41 °FPassing clouds.3 mph87%30.04 "HgN/A
4:50 am41 °FClear.5 mph87%30.04 "Hg10 mi
4:20 am41 °FClear.5 mph87%30.04 "Hg10 mi
3:50 am41 °FClear.3 mph87%30.04 "Hg10 mi
3:20 am43 °FClear.7 mph81%30.04 "Hg10 mi
2:50 am45 °FClear.6 mph76%30.04 "Hg10 mi
2:20 am45 °FClear.5 mph76%30.01 "Hg10 mi
1:50 am45 °FClear.6 mph76%30.01 "Hg10 mi
1:20 am45 °FClear.5 mph76%30.01 "Hg10 mi
12:50 am46 °FClear.3 mph71%30.01 "Hg10 mi
12:20 am48 °FClear.3 mph66%30.01 "Hg10 mi
11:50 pm
Fri, Apr 28
48 °FClear.6 mph66%30.01 "Hg10 mi
10:50 pm48 °FClear.9 mph62%30.01 "Hg10 mi
10:20 pm48 °FClear.8 mph62%30.01 "Hg10 mi
9:50 pm48 °FClear.7 mph62%29.98 "Hg10 mi
9:20 pm50 °FPassing clouds.13 mph58%29.98 "HgN/A
8:50 pm50 °FPassing clouds.9 mph58%29.98 "HgN/A
8:20 pm52 °FScattered showers. Partly sunny.8 mph50%29.95 "HgN/A
7:50 pm52 °FScattered showers. Partly sunny.12 mph50%29.95 "HgN/A
7:20 pm54 °FSunny.10 mph44%29.95 "Hg10 mi
6:50 pm54 °FSunny.10 mph44%29.95 "Hg10 mi
6:20 pm54 °FPassing clouds.12 mph41%29.95 "HgN/A
5:50 pm54 °FPassing clouds.12 mph41%29.95 "HgN/A
5:20 pm54 °FSunny.13 mph38%29.95 "Hg10 mi
4:50 pm54 °FPassing clouds.8 mph35%29.95 "HgN/A
4:20 pm55 °FPassing clouds.9 mph33%29.92 "HgN/A
3:50 pm54 °FPassing clouds.9 mph35%29.95 "HgN/A
3:20 pm54 °FPassing clouds.7 mph35%29.92 "HgN/A
2:50 pm54 °FPassing clouds.8 mph38%29.92 "HgN/A
2:20 pm55 °FPassing clouds.8 mph33%29.92 "HgN/A
1:50 pm54 °FPassing clouds.9 mph38%29.92 "HgN/A
1:20 pm55 °FPassing clouds.7 mph38%29.92 "HgN/A
Weather by CustomWeather, © 2017

See weather overviewHow to use our weather pages